Location: Albuquerque Trailhead
(34.7934°N, 106.3736°W)
Time: 23:50:12
(UTC+00:00)

IUS-18 SRM-1 - Pass Details

Date: 20 June 2021
Orbit: 295 x 20533 km, 27.9° (Epoch: 01 August)

Event Time Altitude Azimuth Distance (km) Brightness Sun altitude
Rises 03:46:15 0° 255° (WSW) 10,472 9.3 -14.8°
Reaches altitude 10° 03:57:39 10° 252° (WSW) 6,358 8.0 -16.5°
Maximum altitude 04:10:13 43° 187° (S) 1,333 3.9 -18.2°
Enters shadow 04:11:37 34° 145° (SE) 1,258 3.6 -18.4°
